Location: Santa Cristina
(46.5667°N, 11.7167°E)
Time: 16:52:38
(UTC+00:00)

USA 305 - Pass Details

Date: 21 April 2021
Orbit: 567 x 573 km, 54.0° (Epoch: 07 May)

Event Time Altitude Azimuth Distance (km) Brightness Sun altitude
Exits shadow 02:36:28 - 299° (WNW) 2,591 6.0 -15.8°
Reaches altitude 10° 02:38:22 10° 307° (NW) 1,881 5.4 -15.5°
Maximum altitude 02:42:21 37° 15° (NNE) 899 4.4 -15.0°
Drops below altitude 10° 02:46:21 10° 84° (E) 1,879 6.5 -14.4°
Sets 02:48:44 0° 93° (E) 2,776 7.3 -14.1°
